Andrews, NC

2:57 AM EDT on May 24, 2018 (GMT -0400)
Andrews

Weather History for KRHP - October, 2013

Change the Weather History Date:

Saturday, October 12, 2013

  Actual Average (KMMI) Record (KMMI)
Temperature  
Mean Temperature 60 °F -  
Max Temperature 75 °F 73 °F 78 °F (2017)
Min Temperature 46 °F 45 °F 35 °F (2016)
Degree Days  
Heating Degree Days 4    
Growing Degree Days 10 (Base 50)    
Moisture  
Dew Point 52 °F    
Average Humidity 85    
Maximum Humidity 100    
Minimum Humidity 49    
Precipitation  
Precipitation 0.00 in - - ()
Sea Level Pressure  
Sea Level Pressure 30.10 in    
Wind  
Wind Speed 1 mph (North)    
Max Wind Speed 10 mph    
Max Gust Speed 16 mph    
Visibility 7 miles    
Events Fog    
Averages and records for this station are not official NWS values.
T = Trace of Precipitation, MM = Missing Value Source: NWS Daily Summary

Daily Weather History Graph

Daily Weather History Graph

Search for Another Location

Airport or City:

Astronomy

Oct. 12, 2013 Rise Set
Actual Time 7:39 AM EDT 7:03 PM EDT
Civil Twilight 7:13 AM EDT 7:29 PM EDT
Nautical Twilight 6:44 AM EDT 7:58 PM EDT
Astronomical Twilight 6:14 AM EDT 8:28 PM EDT
Moon 3:00 PM EDT (10/12) 12:55 AM EDT (10/12)
Length of Visible Light 12h 15m
Length of Day
11h 24m
First Quarter, 58% of the Moon is Illuminated
Oct 12
First Quarter
Oct 18
Full
Oct 26
Last Quarter
Nov 3
New
Nov 10
First Quarter

Hourly Weather History & Observations

Time (EDT) Temp. Dew Point Humidity Pressure Visibility Wind Dir Wind Speed Gust Speed Precip Events Conditions
12:15 AM 50.2 °F 49.8 °F 99% 30.07 in 4.0 mi Calm Calm - N/A   Clear
12:35 AM 50.0 °F 49.5 °F 98% 30.07 in 10.0 mi Calm Calm - N/A   Clear
12:55 AM 50.0 °F 49.6 °F 99% 30.07 in 7.0 mi Calm Calm - N/A   Scattered Clouds
1:15 AM 49.5 °F 49.1 °F 99% 30.06 in 10.0 mi Calm Calm - N/A   Scattered Clouds
1:35 AM 48.9 °F 48.6 °F 99% 30.07 in 10.0 mi Calm Calm - N/A   Clear
1:55 AM 48.6 °F 48.2 °F 99% 30.07 in 10.0 mi Calm Calm - N/A   Clear
2:15 AM 48.9 °F 48.6 °F 99% 30.07 in 5.0 mi Calm Calm - N/A   Clear
2:35 AM 48.2 °F 47.7 °F 98% 30.07 in 10.0 mi Calm Calm - N/A   Scattered Clouds
2:55 AM 47.8 °F 47.5 °F 99% 30.07 in 1.8 mi Calm Calm - N/A   Mostly Cloudy
3:15 AM 47.7 °F 47.5 °F 99% 30.07 in 7.0 mi Calm Calm - N/A   Scattered Clouds
3:35 AM 47.8 °F 47.7 °F 99% 30.07 in 0.8 mi Calm Calm - N/A   Overcast
3:55 AM 47.3 °F 47.3 °F 100% 30.07 in 3.0 mi Calm Calm - N/A   Scattered Clouds
4:15 AM 46.4 °F 46.4 °F 100% 30.08 in 10.0 mi Calm Calm - N/A   Scattered Clouds
4:35 AM 47.1 °F 47.1 °F 100% 30.08 in 4.0 mi Calm Calm - N/A   Mostly Cloudy
4:55 AM 46.6 °F 46.6 °F 100% 30.08 in 0.5 mi Calm Calm - N/A Fog Fog
5:15 AM 47.3 °F 47.1 °F 99% 30.08 in 0.5 mi Calm Calm - N/A Fog Fog
5:35 AM 47.3 °F 47.3 °F 100% 30.08 in 0.5 mi Calm Calm - N/A Fog Fog
5:55 AM 47.3 °F 47.3 °F 100% 30.08 in 0.2 mi Calm Calm - N/A Fog Fog
6:15 AM 47.1 °F 47.1 °F 100% 30.09 in 0.2 mi Calm Calm - N/A Fog Fog
6:35 AM 46.8 °F 46.8 °F 100% 30.09 in 0.5 mi Calm Calm - N/A Fog Fog
6:55 AM 47.1 °F 47.1 °F 100% 30.10 in 0.2 mi Calm Calm - N/A Fog Fog
7:15 AM 47.3 °F 47.3 °F 100% 30.10 in 0.2 mi Calm Calm - N/A Fog Fog
7:35 AM 46.8 °F 46.8 °F 100% 30.10 in 0.2 mi Calm Calm - N/A Fog Fog
7:55 AM 46.9 °F 46.9 °F 100% 30.11 in 0.2 mi Calm Calm - N/A Fog Fog
8:15 AM 47.1 °F 47.1 °F 100% 30.11 in 0.2 mi Calm Calm - N/A Fog Fog
8:35 AM 47.5 °F 47.5 °F 100% 30.12 in 0.2 mi Calm Calm - N/A Fog Fog
8:55 AM 47.8 °F 47.8 °F 100% 30.12 in 0.2 mi Calm Calm - N/A Fog Fog
9:15 AM 48.9 °F 48.9 °F 100% 30.12 in 0.2 mi Calm Calm - N/A Fog Fog
9:35 AM 49.5 °F 49.5 °F 100% 30.13 in 0.2 mi Calm Calm - N/A Fog Fog
9:55 AM 50.7 °F 50.7 °F 100% 30.12 in 0.2 mi Calm Calm - N/A Fog Fog
10:15 AM 52.9 °F 52.9 °F 100% 30.12 in 3.0 mi WSW 4.6 mph - N/A   Overcast
10:35 AM 54.9 °F 54.7 °F 99% 30.12 in 10.0 mi Calm Calm - N/A   Scattered Clouds
10:55 AM 58.3 °F 54.9 °F 88% 30.12 in 10.0 mi WSW 3.5 mph - N/A   Clear
11:15 AM 61.5 °F 55.8 °F 81% 30.11 in 10.0 mi WSW 3.5 mph - N/A   Clear
11:35 AM 64.2 °F 57.0 °F 77% 30.11 in 10.0 mi West 6.9 mph - N/A   Clear
11:55 AM 67.8 °F 57.2 °F 69% 30.10 in 10.0 mi SW 3.5 mph - N/A   Clear
12:15 PM 70.5 °F 56.8 °F 62% 30.10 in 10.0 mi West 4.6 mph - N/A   Clear
12:35 PM 72.5 °F 56.1 °F 56% 30.09 in 10.0 mi Calm Calm - N/A   Clear
12:55 PM 74.1 °F 55.0 °F 51% 30.09 in 10.0 mi ESE 3.5 mph - N/A   Clear
1:15 PM 74.1 °F 53.8 °F 49% 30.09 in 10.0 mi North 6.9 mph - N/A   Clear
1:35 PM 74.3 °F 54.0 °F 49% 30.08 in 10.0 mi NNE 4.6 mph - N/A   Clear
1:55 PM 75.2 °F 54.9 °F 49% 30.08 in 10.0 mi NNE 6.9 mph - N/A   Clear
2:15 PM 75.7 °F 55.6 °F 49% 30.07 in 10.0 mi NE 8.1 mph - N/A   Clear
2:35 PM 74.1 °F 53.8 °F 49% 30.07 in 10.0 mi Calm Calm - N/A   Clear
2:55 PM 73.4 °F 55.4 °F 53% 30.07 in 10.0 mi North 5.8 mph - N/A   Scattered Clouds
3:15 PM 73.2 °F 55.4 °F 54% 30.08 in 10.0 mi North 4.6 mph - N/A   Mostly Cloudy
3:35 PM 72.7 °F 55.2 °F 54% 30.08 in 10.0 mi North 3.5 mph - N/A   Overcast
3:55 PM 73.0 °F 55.9 °F 55% 30.08 in 10.0 mi NNE 5.8 mph - N/A   Mostly Cloudy
4:15 PM 74.1 °F 55.9 °F 53% 30.08 in 10.0 mi North 10.4 mph - N/A   Mostly Cloudy
4:35 PM 75.2 °F 55.8 °F 51% 30.08 in 10.0 mi NE 9.2 mph 16.1 mph N/A   Mostly Cloudy
4:55 PM 73.8 °F 56.5 °F 55% 30.08 in 10.0 mi NE 6.9 mph - N/A   Mostly Cloudy
5:15 PM 72.9 °F 56.1 °F 56% 30.09 in 10.0 mi ENE 6.9 mph - N/A   Scattered Clouds
5:35 PM 71.4 °F 56.3 °F 59% 30.09 in 10.0 mi ENE 6.9 mph - N/A   Mostly Cloudy
5:55 PM 70.5 °F 55.9 °F 60% 30.09 in 10.0 mi NE 8.1 mph - N/A   Mostly Cloudy
6:15 PM 69.1 °F 57.0 °F 65% 30.10 in 10.0 mi Calm Calm - N/A   Mostly Cloudy
6:35 PM 66.6 °F 57.7 °F 73% 30.11 in 10.0 mi Calm Calm - N/A   Scattered Clouds
6:55 PM 64.0 °F 57.6 °F 79% 30.11 in 10.0 mi Calm Calm - N/A   Mostly Cloudy
7:15 PM 61.9 °F 57.2 °F 85% 30.11 in 10.0 mi Calm Calm - N/A   Scattered Clouds
7:35 PM 61.7 °F 57.0 °F 85% 30.11 in 10.0 mi Calm Calm - N/A   Clear
7:55 PM 59.9 °F 56.8 °F 90% 30.11 in 10.0 mi Calm Calm - N/A   Clear
8:15 PM 57.7 °F 55.4 °F 92% 30.11 in 10.0 mi Calm Calm - N/A   Clear
8:35 PM 58.5 °F 56.3 °F 93% 30.11 in 10.0 mi Calm Calm - N/A   Clear
8:55 PM 56.7 °F 55.4 °F 96% 30.11 in 10.0 mi Calm Calm - N/A   Clear
9:15 PM 55.4 °F 54.1 °F 96% 30.12 in 10.0 mi Calm Calm - N/A   Clear
9:35 PM 55.4 °F 53.8 °F 94% 30.12 in 10.0 mi Calm Calm - N/A   Clear
9:55 PM 54.3 °F 53.2 °F 96% 30.13 in 10.0 mi Calm Calm - N/A   Clear
10:15 PM 53.8 °F 53.1 °F 97% 30.14 in 10.0 mi Calm Calm - N/A   Clear
10:35 PM 53.2 °F 52.3 °F 97% 30.15 in 10.0 mi Calm Calm - N/A   Clear
10:55 PM 52.9 °F 52.2 °F 97% 30.15 in 10.0 mi Calm Calm - N/A   Clear
11:15 PM 52.9 °F 52.3 °F 98% 30.16 in 10.0 mi Calm Calm - N/A   Clear
11:35 PM 52.0 °F 51.4 °F 98% 30.17 in 7.0 mi Calm Calm - N/A   Clear
11:55 PM 51.4 °F 51.1 °F 99% 30.17 in 7.0 mi Calm Calm - N/A   Clear